{"data":{"norad_id":56038,"intl_designator":"2023-042BE","name":"STARLINK-5793","alt_names":[],"object_type":"PAYLOAD","status":"ACTIVE","operator":null,"country":"US","launch_date":"2023-03-24","launch_site_code":"AFETR","launch_vehicle":null,"mission":null,"orbit_class":"UNKNOWN","rcs_meters":null,"size_class":null,"mass_kg":null,"dimensions":null,"purposes":["comms"],"wikipedia_slug":null,"has_3d_model":false,"image_url":null,"decayed_at":null,"tle_current":{"epoch":"2026-09-19T09:05:15.426528Z","epoch_age_seconds":203080,"freshness":"STALE","line1":"1 56038U 23042BE  26262.37865077  .00001585  00000+0  67098-4 0  9996","line2":"2 56038  43.0028  31.7079 0001194 271.4322  88.6393 15.27584010192657","mean_motion":15.2758401,"eccentricity":0.0001194,"inclination_deg":43.0028,"raan_deg":31.7079,"arg_perigee_deg":271.4322,"mean_anomaly_deg":88.6393,"bstar":6.7098e-5,"rev_number":19265,"period_min":94.266501257761,"perigee_km":482.21786449714,"apogee_km":483.85631286952,"semimajor_km":6861.1740886833,"source":"CELESTRAK","updated_at":"2026-09-21T09:00:33.360612Z"}}}